W2KFV-2 Weather Reports


Display with metric or nautical units.
time (UTC)temp
F
wind
direction
speed
MPH
gust
MPH
rain 1hr
in
rain 24hr
in
rain mn
in
humidity
%
barometer
mb
20210624154005 74 169 4.0 10.0 0.00 0.00 0.00 42 1027.4
20210624153005 75 142 4.0 12.0 0.00 0.00 0.00 43 1027.3
20210624152005 74 128 7.0 16.0 0.00 0.00 0.00 44 1027.3
20210624151005 74 191 5.0 9.0 0.00 0.00 0.00 45 1027.3
20210624150005 73 109 3.0 12.0 0.00 0.00 0.00 44 1027.3
20210624145005 73 123 4.0 9.0 0.00 0.00 0.00 46 1027.5
20210624144005 73 156 5.0 12.0 0.00 0.00 0.00 48 1027.4
20210624143005 73 174 5.0 12.0 0.00 0.00 0.00 48 1027.5
20210624142005 73 136 3.0 8.0 0.00 0.00 0.00 49 1027.4
20210624141005 73 164 4.0 10.0 0.00 0.00 0.00 54 1027.4
20210624140005 73 170 5.0 9.0 0.00 0.00 0.00 53 1027.4
20210624135006 72 145 2.0 10.0 0.00 0.00 0.00 54 1027.4
20210624134005 72 199 0.0 7.0 0.00 0.00 0.00 54 1027.5
20210624133005 72 83 2.0 5.0 0.00 0.00 0.00 56 1027.5
20210624132005 71 131 1.0 6.0 0.00 0.00 0.00 57 1027.6
20210624131005 71 165 2.0 5.0 0.00 0.00 0.00 59 1027.6
20210624130005 70 155 1.0 3.0 0.00 0.00 0.00 61 1027.5
20210624125005 70 103 2.0 5.0 0.00 0.00 0.00 62 1027.4
20210624124006 69 83 1.0 3.0 0.00 0.00 0.00 64 1027.3
20210624123005 68 119 3.0 6.0 0.00 0.00 0.00 66 1027.2
20210624122005 68 101 1.0 3.0 0.00 0.00 0.00 66 1027.1
20210624121005 67 88 2.0 3.0 0.00 0.00 0.00 67 1027.1
20210624120005 67 57 2.0 3.0 0.00 0.00 0.00 70 1027.1
20210624115005 66 45 1.0 3.0 0.00 0.00 0.00 72 1027.1
20210624114005 66 64 0.0 3.0 0.00 0.00 0.00 71 1027.1
20210624113005 65 65 0.0 0.0 0.00 0.00 0.00 72 1027.1
20210624112005 65 138 0.0 0.0 0.00 0.00 0.00 73 1027.1
20210624111005 64 140 0.0 0.0 0.00 0.00 0.00 77 1027.0
20210624110005 63 140 0.0 0.0 0.00 0.00 0.00 79 1026.9
20210624105005 62 140 0.0 0.0 0.00 0.00 0.00 82 1027.0
20210624104005 60 140 0.0 0.0 0.00 0.00 0.00 85 1026.9
20210624103005 58 140 0.0 0.0 0.00 0.00 0.00 88 1026.7
20210624102005 57 140 0.0 0.0 0.00 0.00 0.00 90 1026.7
20210624101005 55 140 0.0 0.0 0.00 0.00 0.00 90 1026.5
20210624100004 53 140 0.0 0.0 0.00 0.00 0.00 90 1026.3
20210624095005 53 140 0.0 0.0 0.00 0.00 0.00 90 1026.2
20210624094005 53 140 0.0 0.0 0.00 0.00 0.00 90 1026.0
20210624093005 53 140 0.0 0.0 0.00 0.00 0.00 90 1026.0
20210624092005 53 140 0.0 0.0 0.00 0.00 0.00 89 1025.8
20210624091005 53 140 0.0 0.0 0.00 0.00 0.00 89 1025.8
20210624090005 54 140 0.0 0.0 0.00 0.00 0.00 89 1025.8
20210624085005 54 140 0.0 0.0 0.00 0.00 0.00 89 1025.6
20210624084005 54 140 0.0 0.0 0.00 0.00 0.00 89 1025.5
20210624083005 54 140 0.0 0.0 0.00 0.00 0.00 89 1025.4
20210624082005 54 143 0.0 0.0 0.00 0.00 0.00 88 1025.3
20210624081005 54 145 0.0 0.0 0.00 0.00 0.00 88 1025.3
20210624080005 55 146 0.0 0.0 0.00 0.00 0.00 87 1025.2
20210624075005 55 145 0.0 0.0 0.00 0.00 0.00 86 1025.2
20210624074005 55 145 0.0 1.0 0.00 0.00 0.00 86 1025.1
20210624073005 56 146 0.0 0.0 0.00 0.00 0.00 85 1025.2
20210624072005 56 146 0.0 0.0 0.00 0.00 0.00 85 1025.1
20210624071005 56 145 0.0 0.0 0.00 0.00 0.00 84 1025.2
20210624070005 57 145 0.0 0.0 0.00 0.00 0.00 83 1025.1
20210624065005 57 145 0.0 0.0 0.00 0.00 0.00 81 1025.1
20210624064005 58 145 0.0 0.0 0.00 0.00 0.00 80 1025.1
20210624063006 58 146 0.0 0.0 0.00 0.00 0.00 79 1025.1
20210624062005 59 145 0.0 0.0 0.00 0.00 0.00 77 1025.1
20210624061005 59 145 0.0 1.0 0.00 0.00 0.00 77 1025.0
20210624060004 60 148 0.0 0.0 0.00 0.00 0.00 75 1025.1
20210624055005 61 148 0.0 0.0 0.00 0.00 0.00 74 1025.0
20210624054005 61 148 0.0 0.0 0.00 0.00 0.00 73 1024.9
20210624053005 61 148 0.0 0.0 0.00 0.00 0.00 72 1025.0
20210624052005 62 148 0.0 0.0 0.00 0.00 0.00 71 1024.9
20210624051004 62 148 0.0 3.0 0.00 0.00 0.00 70 1024.9
20210624050005 62 166 0.0 2.0 0.00 0.00 0.00 71 1024.9
20210624045005 63 195 0.0 3.0 0.00 0.00 0.00 71 1024.7
20210624044005 63 244 1.0 2.0 0.00 0.00 0.00 72 1024.7
20210624043005 63 205 0.0 3.0 0.00 0.00 0.00 74 1024.7
20210624042005 63 201 0.0 2.0 0.00 0.00 0.00 74 1024.7
20210624041005 63 141 1.0 3.0 0.00 0.00 0.00 75 1024.7
20210624040005 63 139 0.0 3.0 0.00 0.00 0.00 75 1024.6
20210624035005 63 222 1.0 3.0 0.00 0.00 0.00 74 1024.6
20210624034005 64 134 0.0 3.0 0.00 0.00 0.00 73 1024.5
20210624033005 64 216 0.0 5.0 0.00 0.00 0.00 73 1024.5
20210624032005 64 173 1.0 3.0 0.00 0.00 0.00 73 1024.4
20210624031005 64 205 0.0 3.0 0.00 0.00 0.00 72 1024.2
20210624030005 64 202 1.0 3.0 0.00 0.00 0.00 72 1024.2
20210624025005 64 182 1.0 3.0 0.00 0.00 0.00 71 1024.2
20210624024005 64 201 1.0 3.0 0.00 0.00 0.00 71 1024.1
20210624023020 65 195 1.0 5.0 0.00 0.01 0.00 70 1024.1
20210624022005 65 188 1.0 3.0 0.00 0.01 0.00 70 1024.1
20210624021005 65 193 1.0 3.0 0.00 0.01 0.00 68 1024.0
20210624020004 65 199 1.0 3.0 0.00 0.01 0.00 67 1024.0
20210624015004 65 239 1.0 5.0 0.00 0.01 0.00 66 1023.9
20210624014004 66 137 1.0 8.0 0.00 0.01 0.00 66 1023.8
20210624013005 66 167 2.0 5.0 0.00 0.01 0.00 66 1023.7
20210624012005 66 182 1.0 7.0 0.00 0.01 0.00 65 1023.6
20210624011006 66 171 3.0 6.0 0.00 0.01 0.00 65 1023.3
20210624010004 66 203 1.0 3.0 0.00 0.01 0.00 64 1023.3
20210624005005 66 198 2.0 7.0 0.00 0.01 0.00 63 1023.1
20210624004008 67 224 1.0 3.0 0.00 0.01 0.00 62 1023.1
20210624003004 67 222 2.0 6.0 0.00 0.01 0.00 61 1022.9
20210624002005 67 196 1.0 6.0 0.00 0.01 0.00 59 1022.8
20210624001005 68 200 1.0 6.0 0.00 0.01 0.00 58 1022.6
20210624000004 68 212 3.0 8.0 0.00 0.01 0.00 56 1022.5
20210623235004 70 186 3.0 7.0 0.00 0.01 0.00 54 1022.4
20210623234004 70 210 4.0 9.0 0.00 0.01 0.00 54 1022.3
20210623233005 71 253 3.0 10.0 0.00 0.01 0.00 51 1022.2
20210623232004 71 207 3.0 10.0 0.00 0.01 0.00 53 1022.0
20210623231005 71 213 5.0 9.0 0.00 0.02 0.00 50 1022.0
20210623230004 72 202 4.0 8.0 0.00 0.03 0.00 50 1021.8
20210623225005 71 233 2.0 8.0 0.00 0.04 0.00 51 1021.8
20210623224004 71 167 5.0 12.0 0.00 0.06 0.00 52 1021.6
20210623223004 73 192 5.0 12.0 0.00 0.07 0.00 49 1021.3
20210623222004 75 226 2.0 6.0 0.00 0.08 0.00 44 1021.1
20210623221005 75 272 3.0 6.0 0.00 0.09 0.00 43 1021.1
20210623220004 75 117 2.0 5.0 0.00 0.09 0.00 41 1021.1
20210623215004 77 7 1.0 3.0 0.00 0.10 0.00 34 1021.1
20210623214005 76 293 1.0 3.0 0.00 0.10 0.00 36 1021.0
20210623213004 76 41 2.0 7.0 0.00 0.10 0.00 39 1020.9
20210623212004 75 279 1.0 6.0 0.00 0.11 0.00 39 1020.9
20210623211004 75 337 1.0 5.0 0.00 0.12 0.00 37 1021.0
20210623210005 75 46 5.0 8.0 0.00 0.12 0.00 38 1021.0
20210623205004 75 75 3.0 7.0 0.00 0.12 0.00 37 1020.9
20210623204004 76 357 2.0 7.0 0.00 0.13 0.00 38 1021.0
20210623203006 76 11 1.0 5.0 0.00 0.14 0.00 40 1021.0
20210623202005 76 352 2.0 6.0 0.00 0.15 0.00 40 1021.0
20210623201005 75 189 1.0 8.0 0.00 0.17 0.00 40 1021.1
20210623200004 74 290 3.0 12.0 0.00 0.17 0.00 40 1021.0
20210623195005 76 273 5.0 8.0 0.00 0.17 0.00 38 1020.8
20210623194004 76 219 1.0 6.0 0.00 0.17 0.00 40 1021.0
20210623193004 74 348 2.0 8.0 0.00 0.17 0.00 39 1020.9
20210623192004 75 46 2.0 8.0 0.00 0.17 0.00 41 1020.8
20210623191004 75 266 2.0 7.0 0.00 0.17 0.00 39 1020.9
20210623190004 74 40 1.0 6.0 0.00 0.18 0.00 42 1020.8
20210623185004 73 25 4.0 12.0 0.00 0.18 0.00 41 1020.8
20210623184004 73 324 2.0 7.0 0.00 0.18 0.00 41 1020.8
20210623183005 73 266 1.0 7.0 0.00 0.18 0.00 40 1020.9
20210623182004 73 325 3.0 8.0 0.00 0.21 0.00 40 1020.7
20210623181004 72 287 5.0 10.0 0.00 0.21 0.00 40 1020.8
20210623180005 72 54 1.0 12.0 0.00 0.21 0.00 40 1020.6
20210623175005 72 354 2.0 7.0 0.00 0.22 0.00 40 1020.7
20210623174005 73 29 5.0 9.0 0.00 0.25 0.00 40 1020.7
20210623173004 72 34 1.0 6.0 0.00 0.26 0.00 41 1020.8
20210623172004 73 322 1.0 13.0 0.00 0.26 0.00 40 1020.7
20210623171005 72 52 2.0 9.0 0.00 0.26 0.00 41 1020.7
20210623170004 71 309 2.0 7.0 0.00 0.26 0.00 42 1020.7
20210623165004 71 53 2.0 10.0 0.00 0.26 0.00 43 1020.6
20210623164004 71 25 3.0 12.0 0.00 0.26 0.00 43 1020.6
20210623163005 71 37 4.0 9.0 0.00 0.26 0.00 41 1020.6
20210623162004 71 35 2.0 7.0 0.00 0.26 0.00 42 1020.5
20210623161005 71 333 3.0 14.0 0.00 0.26 0.00 41 1020.5
20210623160004 71 0 2.0 10.0 0.00 0.26 0.00 41 1020.5
20210623155004 70 48 5.0 15.0 0.00 0.26 0.00 41 1020.5